Weather History for Lincoln, NE

Change the Weather History Date:

Saturday, June 29, 2013

  Actual Average Record
Temperature  
Mean Temperature 73 °F 76 °F  
Max Temperature 83 °F 88 °F 104 °F (1974)
Min Temperature 62 °F 65 °F 44 °F (1940)
Degree Days  
Heating Degree Days 0 0  
Month to date heating degree days 20 13  
Since 1 June heating degree days 20 13  
Since 1 July heating degree days 6326 6053  
Cooling Degree Days 8 11  
Month to date cooling degree days 229 231  
Year to date cooling degree days 316 310  
Since 1 June cooling degree days 229 231  
Growing Degree Days 22 (Base 50)    
Moisture  
Dew Point 54 °F    
Average Humidity 57    
Maximum Humidity 78    
Minimum Humidity 36    
Precipitation  
Precipitation 0.00 in 0.13 in 2.86 in (1965)
Month to date precipitation 2.49 4.22  
Year to date precipitation 18.34 14.56  
Snow  
Snow 0.00 in 0.00 in - ()
Month to date snowfall 0.0 0.0  
Since 1 July snowfall 27.5 25.9  
Snow Depth 0.00 in    
Sea Level Pressure  
Sea Level Pressure 29.92 in    
Wind  
Wind Speed 16 mph (NNW)    
Max Wind Speed 33 mph    
Max Gust Speed 39 mph    
Visibility 10 miles    
Events      
T = Trace of Precipitation, MM = Missing Value Source: NWS Daily Summary

Daily Weather History Graph

Daily Weather History Graph

Search for Another Location

Airport:

Trip Planner

Search our weather history database for the weather conditions in past years. The results will help you decide how hot, cold, wet, or windy it might be!

Date:

Astronomy

Jun. 29, 2013 Rise Set
Actual Time 5:58 AM CDT 9:02 PM CDT
Civil Twilight 5:24 AM CDT 9:36 PM CDT
Nautical Twilight 4:42 AM CDT 10:18 PM CDT
Astronomical Twilight 3:52 AM CDT 11:08 PM CDT
Moon 12:29 AM CDT (6/29) 1:14 PM CDT (6/29)
Length of Visible Light 16h 11m
Length of Day
15h 04m
Waning Gibbous, 55% of the Moon is Illuminated
Jun 29
Waning Gibbous
Jun 29
Last Quarter
Jul 8
New
Jul 15
First Quarter
Jul 22
Full

Hourly Weather History & Observations

Time (CDT) Temp. Heat Index Dew Point Humidity Pressure Visibility Wind Dir Wind Speed Gust Speed Precip Events Conditions
12:54 AM 69.1 °F - 55.0 °F 61% 29.92 in 10.0 mi NW 5.8 mph - N/A   Clear
1:54 AM 68.0 °F - 55.0 °F 63% 29.92 in 10.0 mi NW 6.9 mph - N/A   Clear
2:54 AM 68.0 °F - 55.0 °F 63% 29.92 in 10.0 mi NW 6.9 mph - N/A   Clear
3:54 AM 63.0 °F - 55.0 °F 75% 29.92 in 10.0 mi NNW 5.8 mph - N/A   Clear
4:54 AM 68.0 °F - 54.0 °F 61% 29.91 in 10.0 mi NW 11.5 mph - N/A   Clear
5:54 AM 66.0 °F - 54.0 °F 65% 29.93 in 10.0 mi NNW 9.2 mph - N/A   Clear
6:54 AM 68.0 °F - 54.0 °F 61% 29.93 in 10.0 mi NNW 9.2 mph - N/A   Clear
7:54 AM 70.0 °F - 55.0 °F 59% 29.93 in 10.0 mi NNW 13.8 mph - N/A   Clear
8:54 AM 73.9 °F - 55.9 °F 53% 29.94 in 10.0 mi NW 13.8 mph - N/A   Clear
9:54 AM 77.0 °F - 53.1 °F 43% 29.93 in 10.0 mi NNW 23.0 mph 29.9 mph N/A   Clear
10:54 AM 79.0 °F - 53.1 °F 40% 29.92 in 10.0 mi North 27.6 mph 33.4 mph N/A   Clear
11:54 AM 80.1 °F - 52.0 °F 38% 29.93 in 10.0 mi North 29.9 mph 38.0 mph N/A   Clear
12:54 PM 81.0 °F - 52.0 °F 36% 29.92 in 10.0 mi North 26.5 mph 39.1 mph N/A   Scattered Clouds
1:54 PM 81.0 °F - 52.0 °F 36% 29.91 in 10.0 mi North 25.3 mph 36.8 mph N/A   Scattered Clouds
2:54 PM 82.0 °F 81.2 °F 53.1 °F 37% 29.91 in 10.0 mi North 27.6 mph 36.8 mph N/A   Partly Cloudy
3:54 PM 79.0 °F - 54.0 °F 42% 29.91 in 10.0 mi North 23.0 mph 31.1 mph N/A   Mostly Cloudy
4:54 PM 77.0 °F - 54.0 °F 45% 29.91 in 10.0 mi North 23.0 mph 34.5 mph N/A   Mostly Cloudy
5:54 PM 77.0 °F - 55.0 °F 47% 29.91 in 10.0 mi North 24.2 mph 28.8 mph N/A   Mostly Cloudy
6:54 PM 77.0 °F - 54.0 °F 45% 29.91 in 10.0 mi North 16.1 mph 25.3 mph N/A   Mostly Cloudy
7:54 PM 75.0 °F - 55.9 °F 51% 29.91 in 10.0 mi North 12.7 mph - N/A   Mostly Cloudy
8:54 PM 68.0 °F - 57.9 °F 70% 29.92 in 10.0 mi North 6.9 mph - N/A   Clear
9:54 PM 70.0 °F - 55.9 °F 61% 29.94 in 10.0 mi NW 5.8 mph - N/A   Scattered Clouds
10:54 PM 64.0 °F - 55.9 °F 75% 29.95 in 10.0 mi NNW 6.9 mph - N/A   Clear
11:54 PM 66.0 °F - 55.9 °F 70% 29.95 in 10.0 mi NNW 8.1 mph - N/A   Clear